Regional Weather Roundup
Issued by NWS

Home | Current Version | Previous Version | Text Only | Print | Product List | Glossary On
Versions: 1 2 3 4 5 6 7 8 9 10 11 12 13 14 15 16 17 18 19 20 21 22 23 24 25 26 27 28 29 30 31 32 33 34 35 36 37 38 39 40 41 42 43 44 45 46 47 48 49 50
000
ASUS46 KLOX 310112
RWRCA

SOUTHERN CALIFORNIA WEATHER ROUNDUP
NATIONAL WEATHER SERVICE OXNARD CALIFORNIA
600 PM PDT WED JUL 30 2014

NOTE: "FAIR" INDICATES FEW OR NO CLOUDS BELOW 12,000 FEET WITH NO
SIGNIFICANT WEATHER AND/OR OBSTRUCTIONS TO VISIBILITY.

  -  STATIONS PRECEEDED BY AN ASTERISK (*) ARE NOT NWS OR FAA
     STATIONS AND ARE NOT SUBJECT TO NWS AND FAA QUALITY CONTROL.

CAZ041-042-087-310200-
LA AND ORANGE COUNTY COASTAL AREAS


CITY           SKY/WX    TMP DP  RH WIND       PRES   REMARKS
L.A. DOWNTOWN  MOSUNNY   79  58  48 VRB5      29.89S
L.A. AIRPORT   PTSUNNY   72  62  71 W10       29.91S
LONG BEACH     MOSUNNY   83  59  44 NW12      29.88F

CITY           SKY/WX    TMP DP  RH WIND       PRES   REMARKS
AVALON           N/A     75 N/A N/A NW3         N/A
FULLERTON      MOSUNNY   89  59  36 S6        29.87F
*GETTY CENTER    N/A     77  57  50 SW7         N/A
HAWTHORNE      MOSUNNY   76  60  57 NW8       29.90F
*LEO CARRILLO    N/A     75  62  64 W13         N/A
*LOS ALAMITOS  MOSUNNY   87  64  46 S10       29.87F
*REDONDO BEACH   N/A     72  65  79 W3        29.90S
SANTA ANA      MOSUNNY   83  59  44 SW10      29.88F
STA MONICA APT PTSUNNY   74  60  61 SW8       29.91S
TORRANCE       MOSUNNY   75  64  69 W14       29.90
*UCLA            N/A     75  57  53 SW8       29.88S

$$

CAZ547-548-048-310200-
LA COUNTY VALLEYS AND INLAND EMPIRE


CITY           SKY/WX    TMP DP  RH WIND       PRES   REMARKS
BURBANK        PTSUNNY   85  54  34 S9        29.89F
VAN NUYS       PTSUNNY   90  56  31 SE7       29.88F

CITY           SKY/WX    TMP DP  RH WIND       PRES   REMARKS
CORONA AIRPORT PTCLDY    93  59  32 W9        29.87F HX  92
*CHATSWORTH      N/A     92  62  35 CALM      29.83F HX  93
CHINO          PTSUNNY   92  58  31 W12       29.89F HX  91
MARCH AFB      MOSUNNY   94  53  24 NW13      29.93F HX  92
*NORTHRIDGE      N/A     91  52  25 SE2         N/A
ONTARIO        PTSUNNY   94  57  28 SW13      29.89F HX  92
*PASADENA        N/A     88  59  37 E7          N/A
POMONA         SUNNY     91  57  31 W12       29.93F HX  90
RIVERSIDE      MOSUNNY   94  55  26 W9        29.89S HX  92
SAN BERNARDINO PTSUNNY   95  48  20 SW10      29.91S HX  91
*SAN RAFAEL HI   N/A     86  54  33 E5          N/A
*SAUGUS          N/A     92  54  27 W5          N/A  HX  90
*WHITEMAN AP   PTSUNNY   90  55  31 E9        29.94S
*WHITTIER HILL   N/A     88  63  43 SW7         N/A
*WOODLAND HILL   N/A     95  55  26 E2          N/A  HX  93

$$

CAZ054-055-310200-
LA AND SAN BERNARDINO COUNTY MOUNTAINS


CITY           SKY/WX    TMP DP  RH WIND       PRES   REMARKS
*BIG BEAR AIRP PTCLDY    75  45  33 W10       30.32S
*CHILAO          N/A     85  49  28 SW8         N/A
MT WILSON NWS    N/A     82  52  34 MISG        N/A
SANDBERG       PTSUNNY   85  45  24 NW14      30.17F
*WARM SPRINGS    N/A     89  52  27 CALM        N/A

$$

CAZ028-029-059-060-099-310200-
ANTELOPE VALLEY AND SURROUNDING AREAS


CITY           SKY/WX    TMP DP  RH WIND       PRES   REMARKS
LANCASTER      PTSUNNY   97  46  17 W18       29.97S HX  93
PALMDALE       PTSUNNY   96  49  20 SW21      29.98S HX  93
*POPPY PARK      N/A     94  48  20 W16G28      N/A  HX  91

CITY           SKY/WX    TMP DP  RH WIND       PRES   REMARKS
29 PALMS       MOSUNNY  105  42  11 VRB3      29.92F HX 100
BARSTOW/DAGGET PTSUNNY  106  37   9 W14       29.85F HX 100
BISHOP         CLOUDY    74  58  57 SE9       30.21F
CHINA LAKE     PTSUNNY   91  53  27 NW33G43   29.94S BLWGDUST
EDWARDS AFB    PTSUNNY   97  46  17 W17       29.93R HX  93
MOJAVE         FAIR      93  46  20 W18G25    29.99S
NEEDLES        SUNNY    111  52  14 NE10      29.74F HX 108
VICTORVILLE    PTSUNNY   99  45  15 W17G23    29.98S HX  94

$$

CAZ039-040-310200-
VENTURA AND SANTA BARBARA COUNTY COAST


CITY           SKY/WX    TMP DP  RH WIND       PRES   REMARKS
CAMARILLO      PTSUNNY   76  59  55 SW7       29.90S
NWS OXNARD       N/A     73  60  65 CALM      29.89F
OXNARD AIRPORT PTSUNNY   69  61  75 W8        29.90F
*POINT MUGU    PTSUNNY   72  61  68 W8        29.91S
SBA APT/GOLETA MOSUNNY   71  61  70 SE8       29.88F
*SANTA BARBARA   N/A     77  60  56 CALM      29.96F
*VENTURA         N/A     76  60  58 SW3       29.93S

$$

CAZ044-045-310200-
VENTURA COUNTY VALLEYS


CITY           SKY/WX    TMP DP  RH WIND       PRES   REMARKS
*SIMI VALLEY     N/A     87  59  38 W3        29.84S
*OJAI            N/A     91  63  38 W3        29.80S HX  91
*FILLMORE        N/A     84  62  47 CALM      29.79F

$$

CAZ053-310200-
VENTURA COUNTY MOUNTAINS


CITY           SKY/WX    TMP DP  RH WIND       PRES   REMARKS
*LOCKWOOD VLY    N/A     82  43  24 MISG        N/A
*ROSE VALLEY     N/A     91  59  33 MISG        N/A  HX  90

$$

CAZ034-035-036-310200-
CENTRAL COAST AND SANTA YNEZ VALLEY


CITY           SKY/WX    TMP DP  RH WIND       PRES   REMARKS
SAN LUIS OBISP CLOUDY    71  59  65 NW8       29.94F
SANTA MARIA    PTSUNNY   70  59  68 NW8       29.96F

CITY           SKY/WX    TMP DP  RH WIND       PRES   REMARKS
*CAL POLY SLO    N/A    N/A N/A N/A S7          N/A
*LOMPOC          N/A     70  57  64 MISG      29.96F
*PISMO BEACH     N/A     68  62  79 S3        29.95S

$$

CAZ037-038-051-310200-
SAN LUIS OBISPO COUNTY INTERIOR AND CUYAMA VALLEY


CITY           SKY/WX    TMP DP  RH WIND       PRES   REMARKS
*CUYAMA          N/A     92  49  22 W16       29.83S
PASO ROBLES    CLOUDY    94  48  20 S12       29.90F HX  90

$$

CAZ032-033-061-310200-
SOUTHERN DESERTS


CITY           SKY/WX    TMP DP  RH WIND       PRES   REMARKS
BLYTHE           N/A    N/A N/A N/A MISG      29.70F
IMPERIAL       CLOUDY   112  49  12 E6        29.68F HX 108
PALM SPRINGS   SUNNY    111  48  12 NW18G26   29.74F HX 107
THERMAL        MOSUNNY  114  47  11 SW5       29.66F HX 109

$$

ELSEWHERE ACROSS THE WESTERN UNITED STATES AND MEXICO


CITY           SKY/WX    TMP DP  RH WIND       PRES   REMARKS
DENVER, CO     CLOUDY    60  55  83 E7        30.34S
GRAND CANYON,  MOSUNNY   82  45  27 VRB5      30.24F
HONOLULU, HI   MOSUNNY   88  63  42 E17G25    29.99S
KAHULUI, MAUI  MOSUNNY   88  63  42 NE22G30   29.96F
LAKE TAHOE, CA PTSUNNY   75  45  34 NE8       30.35S
LAS VEGAS, NV  MOSUNNY  104  48  15 SW9       29.83F HX 100
MAMMOTH LAKES, FAIR      66  48  52 E3        30.40F
MEXICO CITY, M CLOUDY    64  50  59 NW14      30.31R
PHOENIX, AZ    MOSUNNY  109  48  13 W10       29.76F HX 105
PORTLAND, OR   MOSUNNY   88  57  34 NW9G17    29.99F
RENO, NV       CLOUDY    80  47  31 NW9       30.21F
SALT LAKE CITY MOSUNNY   79  55  43 SE9       30.12F
SAN DIEGO, CA  MOSUNNY   77  64  64 W10       29.91F
SAN FRANCISCO, MOSUNNY   66  57  72 W23       29.94F
SAN JOSE, CA   MOSUNNY   76  60  57 W13       29.93S
SEATTLE, WA    MOSUNNY   82  45  27 N14       30.10F
TIJUANA, MEX   MOSUNNY   79  61  53 NE22      29.93R

$$

STATION/POSITION TIME  TEMP    WIND        PRES    VSBY  WAVE
                       AIR SEA DIR/SP/G                  HT/PER
                 (UTC) (F)     (DEG/KT/KT) (MB)    (MI)  (FT/S)
POINT ARGUELLO B NOT AVBL
WEST SANTA BARBA 0100   61 61  300/ 23/ 27 1012.5R         5/ 5
POINT CONCEPTION NOT AVBL
EAST SANTA BARBA 0000   64 65  260/ 12/ 14 1012.4F
SANTA MONICA BAY 0100   67 68  250/ 12/ 16 1012.3F         4/ 6


USA.gov is the U.S. government's official web portal to all federal, state and local government web resources and services.